This is the latest recevied weather packets stored in our database for station/object MM0ZFG-5. If no packets are shown the sender has not sent any weather packets the latest 10 day(s).
| Time | Temp. | Humidity | Pressure | Rain* | Wind** | Luminosity | Snow |
|---|---|---|---|---|---|---|---|
| 1778207763 | 7.78° C | 92% | 1008.6 hPa | 0 mm | - | - | - |
| 1778207224 | 8.33° C | 93% | 1008.9 hPa | 0 mm | - | - | - |
| 1778206704 | 7.78° C | 93% | 1008.8 hPa | 0 mm | - | - | - |
| 1778204703 | 8.33° C | 93% | 1008.6 hPa | 0 mm | - | - | - |
| 1778195884 | 8.33° C | 93% | 1008.2 hPa | 0.25 mm | - | - | - |
| 1778194804 | 8.33° C | 92% | 1008.2 hPa | 1.02 mm | - | - | - |
| 1778189763 | 8.89° C | 89% | 1007.9 hPa | 0 mm | - | - | - |
| 1778184545 | 8.89° C | 88% | 1007.7 hPa | 0 mm | - | - | - |
| 1778180405 | 9.44° C | 82% | 1007.3 hPa | 0 mm | - | - | - |
| 1778180043 | 9.44° C | 81% | 1007.3 hPa | 0 mm | - | - | - |
| 1778175364 | 11.67° C | 71% | 1007.5 hPa | 0 mm | - | - | - |
| 1778172843 | 10.56° C | 71% | 1007.4 hPa | 0 mm | - | - | - |
| 1778172304 | 11.67° C | 69% | 1007.4 hPa | 0 mm | - | - | - |
| 1778171223 | 12.78° C | 61% | 1007.4 hPa | 0 mm | - | - | - |
| 1778168164 | 11.67° C | 67% | 1007.4 hPa | 0 mm | - | - | - |
| 1778158464 | 15° C | 64% | 1008.1 hPa | 0 mm | - | - | - |
| 1778157364 | 14.44° C | 64% | 1008 hPa | 0 mm | - | - | - |
| 1778156285 | 13.33° C | 65% | 1008.2 hPa | 0 mm | - | - | - |
| 1778155225 | 13.33° C | 64% | 1008 hPa | 0 mm | - | - | - |
| 1778154844 | 12.78° C | 68% | 1008.2 hPa | 0 mm | - | - | - |
| 1778153764 | 11.11° C | 75% | 1008.3 hPa | 0 mm | - | - | - |
| 1778149623 | 10° C | 82% | 1008.3 hPa | 0 mm | - | - | - |
| 1778146564 | 8.89° C | 87% | 1008.2 hPa | 0 mm | - | - | - |
| 1778145484 | 8.33° C | 87% | 1008.1 hPa | 0 mm | - | - | - |
| 1778132163 | 6.67° C | 79% | 1008.4 hPa | 0 mm | - | - | - |
* Rain latest hour (hover to see other rain measurements)
** Current wind speed in m/s (hover to see current wind gust speed)